FW3073 Weather Reports


Display with metric or nautical units.
time (UTC)temp
F
wind
direction
speed
MPH
gust
MPH
rain 1hr
in
rain 24hr
in
rain mn
in
humidity
%
barometer
mb
20260902191003 70 111 1.0 3.0 0.00 0.00 0.00 65 1022.0
20260902190003 71 69 0.0 2.0 0.00 0.00 0.00 60 1022.0
20260902185003 70 78 1.0 3.0 0.00 0.00 0.00 60 1021.6
20260902184003 70 112 0.0 2.0 0.00 0.00 0.00 59 1022.0
20260902183003 69 161 0.0 2.0 0.00 0.00 0.00 63 1022.0
20260902182004 69 84 1.0 4.0 0.00 0.00 0.00 66 1022.0
20260902181003 70 77 1.0 3.0 0.00 0.00 0.00 60 1022.0
20260902180006 71 58 1.0 4.0 0.00 0.00 0.00 59 1022.0
20260902175003 71 86 1.0 4.0 0.00 0.00 0.00 60 1022.0
20260902174003 70 57 1.0 6.0 0.00 0.00 0.00 60 1022.0
20260902173213 70 47 1.0 3.0 0.00 0.00 0.00 63 1022.3
20260902172004 69 63 0.0 2.0 0.00 0.00 0.00 60 1022.0
20260902171003 69 70 1.0 4.0 0.00 0.00 0.00 65 1022.3
20260902170213 69 92 1.0 4.0 0.00 0.00 0.00 66 1022.0
20260902165003 69 86 2.0 7.0 0.00 0.00 0.00 67 1022.3
20260902164213 69 92 1.0 4.0 0.00 0.00 0.00 66 1022.3
20260902163003 68 82 1.0 4.0 0.00 0.00 0.00 64 1022.0
20260902162004 69 80 1.0 7.0 0.00 0.00 0.00 68 1022.0
20260902161003 69 59 1.0 7.0 0.00 0.00 0.00 67 1022.0
20260902160005 68 59 1.0 7.0 0.00 0.00 0.00 68 1022.0
20260902155003 68 73 1.0 6.0 0.00 0.00 0.00 66 1022.0
20260902154003 69 78 1.0 7.0 0.00 0.00 0.00 65 1022.0
20260902153212 70 74 1.0 3.0 0.00 0.00 0.00 63 1022.3
20260902152004 68 59 1.0 3.0 0.00 0.00 0.00 67 1022.0
20260902151003 70 67 1.0 6.0 0.00 0.00 0.00 64 1022.0
20260902150212 70 88 1.0 6.0 0.00 0.00 0.00 67 1022.0
20260902145003 67 66 1.0 4.0 0.00 0.00 0.00 65 1022.0
20260902144003 67 69 1.0 8.0 0.00 0.00 0.00 66 1022.0
20260902143003 70 92 1.0 7.0 0.00 0.00 0.00 62 1022.0
20260902142214 70 33 1.0 4.0 0.00 0.00 0.00 64 1022.0
20260902141003 68 80 1.0 3.0 0.00 0.00 0.00 67 1022.7
20260902140004 66 83 1.0 4.0 0.00 0.00 0.00 74 1022.7
20260902135003 67 88 1.0 4.0 0.00 0.00 0.00 71 1022.7
20260902134003 65 81 1.0 4.0 0.00 0.00 0.00 75 1022.7
20260902133003 65 72 1.0 4.0 0.00 0.00 0.00 77 1022.7
20260902132003 65 79 1.0 3.0 0.00 0.00 0.00 74 1022.7
20260902131214 65 89 1.0 3.0 0.00 0.00 0.00 75 1023.0
20260902130004 65 89 1.0 3.0 0.00 0.00 0.00 74 1023.0
20260902125003 65 87 0.0 2.0 0.00 0.00 0.00 78 1023.0
20260902124003 64 91 1.0 3.0 0.00 0.00 0.00 76 1022.7
20260902123213 63 86 1.0 1.0 0.00 0.00 0.00 80 1023.0
20260902122003 62 88 1.0 2.0 0.00 0.00 0.00 83 1023.0
20260902121003 61 92 1.0 2.0 0.00 0.00 0.00 85 1023.0
20260902120003 60 102 0.0 1.0 0.00 0.00 0.00 86 1022.7
20260902115213 58 0 0.0 0.0 0.00 0.00 0.00 92 1023.0
20260902114003 56 0 0.0 0.0 0.00 0.00 0.00 99 1023.0
20260902113213 54 0 0.0 0.0 0.00 0.00 0.00 99 1023.0
20260902112213 53 0 0.0 0.0 0.00 0.00 0.00 99 1022.7
20260902111003 52 0 0.0 0.0 0.00 0.00 0.00 99 1023.0
20260902110005 51 0 0.0 0.0 0.00 0.00 0.00 99 1022.7
20260902105213 50 0 0.0 0.0 0.00 0.00 0.00 99 1022.7
20260902104003 49 0 0.0 0.0 0.00 0.00 0.00 99 1022.7
20260902103003 49 0 0.0 0.0 0.00 0.00 0.00 99 1022.7
20260902102213 49 0 0.0 0.0 0.00 0.00 0.00 99 1022.7
20260902101003 49 0 0.0 0.0 0.00 0.00 0.00 99 1022.7
20260902100003 49 0 0.0 0.0 0.00 0.00 0.00 99 1022.7
20260902095003 49 0 0.0 0.0 0.00 0.00 0.00 99 1022.3
20260902094003 48 0 0.0 0.0 0.00 0.00 0.00 99 1022.7
20260902093214 48 0 0.0 0.0 0.00 0.00 0.00 99 1022.3
20260902092003 48 0 0.0 0.0 0.00 0.00 0.00 99 1022.3
20260902091003 49 0 0.0 0.0 0.00 0.00 0.00 98 1022.3
20260902090004 49 0 0.0 0.0 0.00 0.00 0.00 99 1022.0
20260902085003 49 0 0.0 0.0 0.00 0.00 0.00 99 1022.0
20260902084004 49 0 0.0 0.0 0.00 0.00 0.00 99 1022.0
20260902083003 49 0 0.0 0.0 0.00 0.00 0.00 99 1022.0
20260902082004 48 0 0.0 0.0 0.00 0.00 0.00 99 1022.0
20260902081214 48 0 0.0 0.0 0.00 0.00 0.00 98 1022.0
20260902080004 48 0 0.0 0.0 0.00 0.00 0.00 98 1022.0
20260902075003 48 0 0.0 0.0 0.00 0.00 0.00 98 1021.6
20260902074003 48 0 0.0 0.0 0.00 0.00 0.00 98 1021.6
20260902073213 48 0 0.0 0.0 0.00 0.00 0.00 98 1021.6
20260902072004 49 0 0.0 0.0 0.00 0.00 0.00 98 1021.3
20260902071003 49 0 0.0 0.0 0.00 0.00 0.00 98 1021.3
20260902070004 49 0 0.0 0.0 0.00 0.00 0.00 98 1021.3
20260902065213 49 0 0.0 0.0 0.00 0.00 0.00 98 1021.3
20260902064003 49 0 0.0 0.0 0.00 0.00 0.00 98 1021.3
20260902063003 49 0 0.0 0.0 0.00 0.00 0.00 98 1021.0
20260902062004 50 0 0.0 0.0 0.00 0.00 0.00 98 1021.0
20260902061003 50 0 0.0 0.0 0.00 0.00 0.00 98 1021.0
20260902060003 50 93 0.0 1.0 0.00 0.00 0.00 98 1021.0
20260902055003 49 0 0.0 0.0 0.00 0.00 0.00 98 1021.0
20260902054003 50 0 0.0 0.0 0.00 0.00 0.00 98 1021.0
20260902053003 50 93 0.0 1.0 0.00 0.00 0.00 98 1021.0
20260902052003 50 93 0.0 1.0 0.00 0.00 0.00 98 1021.0
20260902051213 50 0 0.0 0.0 0.00 0.00 0.00 98 1020.6
20260902050006 51 0 0.0 0.0 0.00 0.00 0.00 97 1020.6
20260902045003 51 0 0.0 0.0 0.00 0.00 0.00 97 1020.6
20260902044003 51 0 0.0 0.0 0.00 0.00 0.00 97 1021.0
20260902043003 51 0 0.0 0.0 0.00 0.00 0.00 97 1020.6
20260902042003 51 0 0.0 0.0 0.00 0.00 0.00 97 1020.6
20260902041003 51 0 0.0 0.0 0.00 0.00 0.00 97 1020.6
20260902040003 52 0 0.0 0.0 0.00 0.00 0.00 97 1020.6
20260902035003 52 0 0.0 0.0 0.00 0.00 0.00 97 1021.0
20260902034003 52 0 0.0 0.0 0.00 0.00 0.00 97 1020.6
20260902033214 52 0 0.0 0.0 0.00 0.00 0.00 97 1021.0
20260902032003 53 0 0.0 0.0 0.00 0.00 0.00 97 1020.6
20260902031003 53 0 0.0 0.0 0.00 0.00 0.00 97 1020.6
20260902030004 53 0 0.0 0.0 0.00 0.00 0.00 96 1020.3
20260902025003 53 0 0.0 0.0 0.00 0.00 0.00 96 1020.3
20260902024003 53 0 0.0 0.0 0.00 0.00 0.00 96 1020.3
20260902023003 54 0 0.0 0.0 0.00 0.00 0.00 96 1020.3
20260902022003 54 0 0.0 0.0 0.00 0.00 0.00 96 1020.3
20260902021003 54 94 0.0 1.0 0.00 0.00 0.00 95 1020.3
20260902020004 54 0 0.0 0.0 0.00 0.00 0.00 95 1020.3
20260902015213 54 0 0.0 0.0 0.00 0.00 0.00 95 1020.3
20260902014003 55 0 0.0 0.0 0.00 0.00 0.00 94 1020.3
20260902013003 55 84 0.0 1.0 0.00 0.00 0.00 95 1019.9
20260902012003 55 81 0.0 3.0 0.00 0.00 0.00 95 1020.3
20260902011003 55 0 0.0 0.0 0.00 0.00 0.00 95 1020.3
20260902010003 55 0 0.0 0.0 0.00 0.00 0.00 94 1020.3
20260902005003 55 0 0.0 0.0 0.00 0.00 0.00 93 1019.9
20260902004213 55 247 0.0 1.0 0.00 0.00 0.00 94 1019.9
20260902003003 55 0 0.0 0.0 0.00 0.00 0.00 93 1019.9
20260902002003 56 0 0.0 0.0 0.00 0.00 0.00 92 1019.9
20260902001003 56 0 0.0 0.0 0.00 0.00 0.00 92 1019.6
20260902000003 56 0 0.0 0.0 0.00 0.00 0.00 91 1019.6
20260901235003 57 0 0.0 0.0 0.00 0.00 0.00 90 1019.3
20260901234003 57 0 0.0 0.0 0.00 0.00 0.00 89 1019.6
20260901233003 58 0 0.0 0.0 0.00 0.00 0.00 88 1019.3
20260901232003 59 109 0.0 1.0 0.00 0.00 0.00 86 1018.9
20260901231003 60 0 0.0 0.0 0.00 0.00 0.00 84 1019.3
20260901230004 60 102 0.0 3.0 0.00 0.00 0.00 81 1019.3
20260901225003 61 81 0.0 2.0 0.00 0.00 0.00 80 1018.9
20260901224003 61 90 0.0 1.0 0.00 0.00 0.00 78 1018.9
20260901223004 62 158 0.0 1.0 0.00 0.00 0.00 75 1018.9
20260901222003 63 128 0.0 1.0 0.00 0.00 0.00 73 1018.9
20260901221003 63 95 0.0 4.0 0.00 0.00 0.00 71 1018.9
20260901220003 64 117 0.0 2.0 0.00 0.00 0.00 70 1018.9
20260901215003 64 73 1.0 4.0 0.00 0.00 0.00 69 1018.6
20260901214003 65 89 1.0 3.0 0.00 0.00 0.00 67 1018.6
20260901213003 65 68 1.0 7.0 0.00 0.00 0.00 66 1018.9
20260901212003 66 71 1.0 6.0 0.00 0.00 0.00 65 1018.6
20260901211003 66 89 1.0 6.0 0.00 0.00 0.00 61 1018.9
20260901210003 67 80 1.0 6.0 0.00 0.00 0.00 60 1018.6
20260901205003 68 85 1.0 6.0 0.00 0.00 0.00 58 1018.2
20260901204003 68 68 1.0 4.0 0.00 0.00 0.00 56 1018.6
20260901203003 69 64 1.0 6.0 0.00 0.00 0.00 57 1018.2
20260901202213 69 71 2.0 7.0 0.00 0.00 0.00 58 1017.9
20260901201213 69 67 2.0 7.0 0.00 0.00 0.00 61 1018.2
20260901200004 69 50 1.0 7.0 0.00 0.00 0.00 58 1018.2
20260901195003 69 58 2.0 6.0 0.00 0.00 0.00 54 1018.2
20260901194003 70 77 1.0 7.0 0.00 0.00 0.00 57 1017.9
20260901193003 70 43 2.0 7.0 0.00 0.00 0.00 58 1017.9
20260901192213 70 65 2.0 8.0 0.00 0.00 0.00 59 1017.9